Tracking 28126 objects as of 2-Oct-2023
HD Live streaming from Space Station
objects crossing your sky now

STARLINK-30152

Track STARLINK-30152 now!
10-day predictions
STARLINK-30152 is classified as:


NORAD ID: 56828
Int'l Code: 2023-079F
Perigee: 530.0 km
Apogee: 530.5 km
Inclination: 43.0 °
Period: 95.1 minutes
Semi major axis: 6901 km
RCS: Unknown
Launch date: June 4, 2023
Source: United States (US)
Launch site: AIR FORCE EASTERN TEST RANGE (AFETR)
Your satellite tracking list
Your tracking list is empty




NASA's NSSDC Master Catalog

Two Line Element Set (TLE):
1 56828U 23079F   23274.69758298  .00008932  00000-0  49078-3 0  9995
2 56828  43.0010 265.2677 0000338 326.6450  33.4375 15.14307465 18655
Source of the keplerian elements: AFSPC